This is the latest recevied weather packets stored in our database for station/object DB7GV-8. If no packets are shown the sender has not sent any weather packets the latest 10 day(s).
| Time | Temp. | Humidity | Pressure | Rain* | Wind** | Luminosity | Snow |
|---|---|---|---|---|---|---|---|
| 1777469561 | 23.89° C | 26% | 1018.8 hPa | - | - | - | - |
| 1777468655 | 23.89° C | 26% | 1018.9 hPa | - | - | - | - |
| 1777467750 | 23.33° C | 28% | 1018.9 hPa | - | - | - | - |
| 1777466845 | 23.89° C | 28% | 1019 hPa | - | - | - | - |
| 1777465939 | 23.89° C | 28% | 1019 hPa | - | - | - | - |
| 1777465033 | 23.33° C | 28% | 1019 hPa | - | - | - | - |
| 1777464128 | 24.44° C | 27% | 1019.1 hPa | - | - | - | - |
| 1777463223 | 23.33° C | 27% | 1019.2 hPa | - | - | - | - |
| 1777462317 | 23.89° C | 27% | 1019.1 hPa | - | - | - | - |
| 1777461411 | 23.33° C | 28% | 1019.2 hPa | - | - | - | - |
| 1777460506 | 23.89° C | 27% | 1019.3 hPa | - | - | - | - |
| 1777459601 | 24.44° C | 26% | 1019.3 hPa | - | - | - | - |
| 1777458696 | 23.89° C | 27% | 1019.3 hPa | - | - | - | - |
| 1777457791 | 24.44° C | 29% | 1019.4 hPa | - | - | - | - |
| 1777456885 | 24.44° C | 28% | 1019.2 hPa | - | - | - | - |
| 1777455979 | 23.33° C | 30% | 1019.3 hPa | - | - | - | - |
| 1777455074 | 23.89° C | 30% | 1019.3 hPa | - | - | - | - |
| 1777454169 | 22.22° C | 31% | 1019.3 hPa | - | - | - | - |
| 1777453263 | 22.78° C | 31% | 1019.4 hPa | - | - | - | - |
| 1777452358 | 21.67° C | 31% | 1019.4 hPa | - | - | - | - |
| 1777451453 | 21.67° C | 31% | 1019.5 hPa | - | - | - | - |
| 1777450547 | 22.78° C | 28% | 1019.5 hPa | - | - | - | - |
| 1777449641 | 32.78° C | 23% | 1019.7 hPa | - | - | - | - |
| 1777448736 | 17.78° C | 43% | 1019.6 hPa | - | - | - | - |
| 1777447831 | 15° C | 49% | 1019.5 hPa | - | - | - | - |
* Rain since midnight (hover to see other rain measurements)
** Current wind speed in m/s (hover to see current wind gust speed)